Juneau, WI

12:37 PM CST on November 19, 2017 (GMT -0600)
Dodge County

Weather History for KUNU - May, 2013

Change the Weather History Date:

Friday, May 3, 2013

  Actual Average Record
Temperature  
Mean Temperature 42 °F -  
Max Temperature 48 °F 61 °F 87 °F (1980)
Min Temperature 35 °F 43 °F 26 °F (1971)
Degree Days  
Heating Degree Days 24    
Moisture  
Dew Point 40 °F    
Average Humidity 96    
Maximum Humidity 99    
Minimum Humidity 91    
Precipitation  
Precipitation 0.25 in - - ()
Sea Level Pressure  
Sea Level Pressure 30.09 in    
Wind  
Wind Speed 11 mph (NNE)    
Max Wind Speed 16 mph    
Max Gust Speed 23 mph    
Visibility 8 miles    
Events Rain    
Averages and records for this station are not official NWS values.
T = Trace of Precipitation, MM = Missing Value Source: NWS Daily Summary

Daily Weather History Graph

Daily Weather History Graph

Search for Another Location

Airport or City:

Trip Planner

Search our weather history database for the weather conditions in past years. The results will help you decide how hot, cold, wet, or windy it might be!

Date:

Astronomy

May. 03, 2013 Rise Set
Actual Time 5:44 AM CDT 7:59 PM CDT
Civil Twilight 5:13 AM CDT 8:31 PM CDT
Nautical Twilight 4:34 AM CDT 9:10 PM CDT
Astronomical Twilight 3:50 AM CDT 9:53 PM CDT
Moon 2:20 AM CDT (5/3) 1:43 PM CDT (5/3)
Length of Visible Light 15h 18m
Length of Day
14h 14m
Last Quarter, 37% of the Moon is Illuminated
May 3
Last Quarter
May 9
New
May 17
First Quarter
May 24
Full
May 31
Last Quarter

Hourly Weather History & Observations

Time (CDT) Temp. Windchill Dew Point Humidity Pressure Visibility Wind Dir Wind Speed Gust Speed Precip Events Conditions
12:15 AM 36.1 °F 27.3 °F 34.0 °F 92% 30.23 in 4.0 mi North 13.8 mph 18.4 mph 0.02 in Rain Rain
12:35 AM 36.5 °F 27.4 °F 34.7 °F 93% 30.21 in 2.5 mi North 15.0 mph 23.0 mph 0.04 in Rain Light Rain
12:55 AM 36.5 °F 28.2 °F 35.1 °F 95% 30.20 in 10.0 mi North 12.7 mph - 0.05 in Rain Light Rain
1:15 AM 35.8 °F 27.8 °F 34.2 °F 94% 30.20 in 10.0 mi North 11.5 mph - N/A Rain Rain
1:35 AM 35.6 °F 27.1 °F 34.0 °F 94% 30.20 in 10.0 mi NNW 12.7 mph 18.4 mph N/A Rain Light Rain
1:55 AM 35.6 °F 28.6 °F 34.0 °F 94% 30.19 in 3.0 mi NNW 9.2 mph - 0.01 in Rain Rain
2:15 AM 35.1 °F 26.9 °F 33.8 °F 95% 30.19 in 10.0 mi NNW 11.5 mph - N/A   Overcast
2:35 AM 35.1 °F 25.2 °F 33.8 °F 95% 30.16 in 10.0 mi North 16.1 mph - N/A Rain Rain
2:55 AM 35.1 °F 25.9 °F 33.6 °F 94% 30.15 in 10.0 mi North 13.8 mph 20.7 mph N/A   Light Drizzle
3:15 AM 35.1 °F 26.9 °F 34.0 °F 96% 30.15 in 10.0 mi North 11.5 mph 17.3 mph N/A   Light Drizzle
3:35 AM 35.6 °F 28.6 °F 34.5 °F 96% 30.16 in 10.0 mi North 9.2 mph - N/A   Overcast
3:55 AM 36.0 °F 27.1 °F 34.9 °F 96% 30.15 in 10.0 mi North 13.8 mph 18.4 mph N/A   Overcast
4:15 AM 36.5 °F 28.7 °F 35.1 °F 95% 30.15 in 10.0 mi North 11.5 mph 19.6 mph N/A   Overcast
4:35 AM 36.5 °F 30.3 °F 35.1 °F 95% 30.15 in 10.0 mi North 8.1 mph - N/A   Overcast
4:55 AM 36.7 °F 27.6 °F 34.9 °F 93% 30.14 in 10.0 mi NNE 15.0 mph 21.9 mph N/A Rain Rain
5:15 AM 36.5 °F 28.7 °F 34.7 °F 93% 30.14 in 10.0 mi NNE 11.5 mph 21.9 mph N/A   Overcast
5:35 AM 36.1 °F 27.3 °F 34.7 °F 94% 30.13 in 10.0 mi NNE 13.8 mph 21.9 mph N/A   Overcast
5:55 AM 36.0 °F 28.0 °F 34.7 °F 95% 30.14 in 10.0 mi NNE 11.5 mph 19.6 mph N/A   Overcast
6:15 AM 36.0 °F 28.0 °F 34.9 °F 96% 30.14 in 10.0 mi NNE 11.5 mph 18.4 mph N/A   Light Drizzle
6:35 AM 36.0 °F 28.5 °F 35.1 °F 97% 30.14 in 7.0 mi NNE 10.4 mph 20.7 mph N/A   Overcast
6:55 AM 36.0 °F 29.0 °F 35.6 °F 99% 30.16 in 7.0 mi NNE 9.2 mph - N/A   Drizzle
7:15 AM 36.0 °F 28.5 °F 35.6 °F 99% 30.14 in 4.0 mi NNE 10.4 mph 16.1 mph 0.01 in Rain Rain
7:35 AM 36.0 °F 28.0 °F 35.6 °F 99% 30.13 in 2.0 mi North 11.5 mph 17.3 mph 0.07 in Rain Light Rain
7:55 AM 36.0 °F 28.5 °F 35.6 °F 99% 30.13 in 2.5 mi NNE 10.4 mph 19.6 mph 0.12 in Rain Light Rain
8:15 AM 36.0 °F 28.0 °F 35.6 °F 99% 30.12 in 10.0 mi NNE 11.5 mph - 0.01 in Rain Light Rain
8:35 AM 36.1 °F 29.3 °F 35.8 °F 99% 30.12 in 10.0 mi NNE 9.2 mph 20.7 mph 0.01 in Rain Light Rain
8:55 AM 36.5 °F 30.3 °F 36.1 °F 99% 30.12 in 4.0 mi NNE 8.1 mph 16.1 mph 0.02 in Rain Rain
9:15 AM 37.0 °F 28.1 °F 36.5 °F 98% 30.10 in 10.0 mi NNE 15.0 mph 21.9 mph N/A Rain Light Rain
9:35 AM 37.4 °F 28.9 °F 36.7 °F 97% 30.10 in 10.0 mi NNE 13.8 mph 19.6 mph N/A   Overcast
9:55 AM 37.8 °F 30.2 °F 36.5 °F 95% 30.10 in 10.0 mi NNE 11.5 mph - N/A   Overcast
10:15 AM 38.7 °F 30.9 °F 37.4 °F 95% 30.10 in 10.0 mi NNE 12.7 mph 17.3 mph N/A   Overcast
10:35 AM 38.5 °F 31.6 °F 37.4 °F 96% 30.10 in 10.0 mi NNE 10.4 mph - N/A   Light Drizzle
10:55 AM 39.0 °F 32.3 °F 37.6 °F 95% 30.11 in 10.0 mi NNE 10.4 mph - N/A   Light Drizzle
11:15 AM 39.4 °F 34.5 °F 38.1 °F 95% 30.11 in 10.0 mi NNE 6.9 mph - N/A Rain Light Rain
11:35 AM 40.1 °F 33.2 °F 38.8 °F 95% 30.09 in 10.0 mi NNE 11.5 mph - N/A   Light Drizzle
11:55 AM 40.3 °F 34.4 °F 39.2 °F 96% 30.10 in 10.0 mi NNE 9.2 mph - N/A Rain Rain
12:15 PM 41.0 °F 34.3 °F 39.9 °F 96% 30.07 in 10.0 mi North 11.5 mph 16.1 mph 0.01 in Rain Light Rain
12:35 PM 41.4 °F 35.7 °F 40.1 °F 95% 30.09 in 7.0 mi NE 9.2 mph - 0.02 in Rain Rain
12:55 PM 42.1 °F 35.7 °F 41.0 °F 96% 30.07 in 10.0 mi NNE 11.5 mph - 0.02 in   Drizzle
1:15 PM 42.6 °F 37.8 °F 41.2 °F 95% 30.08 in 10.0 mi NE 8.1 mph - N/A   Light Drizzle
1:35 PM 43.2 °F 38.4 °F 41.4 °F 93% 30.07 in 10.0 mi NNE 8.1 mph - N/A   Light Drizzle
1:55 PM 43.5 °F 37.9 °F 41.7 °F 93% 30.07 in 10.0 mi NNE 10.4 mph - N/A   Light Drizzle
2:15 PM 43.9 °F 38.8 °F 42.1 °F 93% 30.07 in 10.0 mi NNE 9.2 mph - N/A   Drizzle
2:35 PM 44.1 °F 38.6 °F 42.3 °F 93% 30.06 in 10.0 mi NNE 10.4 mph 16.1 mph N/A   Light Drizzle
2:55 PM 44.6 °F 39.7 °F 43.2 °F 95% 30.06 in 10.0 mi NNE 9.2 mph - N/A Rain Rain
3:15 PM 44.8 °F 39.0 °F 43.2 °F 94% 30.06 in 7.0 mi NNE 11.5 mph - 0.01 in Rain Rain
3:35 PM 45.0 °F 39.7 °F 43.7 °F 95% 30.05 in 7.0 mi NNE 10.4 mph 16.1 mph 0.01 in   Drizzle
3:55 PM 45.3 °F 40.1 °F 43.9 °F 95% 30.05 in 7.0 mi NE 10.4 mph - 0.01 in Rain Light Rain
4:15 PM 45.5 °F 40.8 °F 44.2 °F 95% 30.04 in 7.0 mi NNE 9.2 mph - N/A Rain Light Rain
4:35 PM 45.5 °F 39.9 °F 44.6 °F 97% 30.03 in 7.0 mi NE 11.5 mph 17.3 mph 0.01 in Rain Rain
4:55 PM 46.0 °F 41.0 °F 45.0 °F 96% 30.03 in 10.0 mi NE 10.4 mph - 0.01 in   Overcast
5:15 PM 46.4 °F 41.1 °F 45.0 °F 95% 30.02 in 10.0 mi NNE 11.5 mph 16.1 mph N/A   Drizzle
5:35 PM 46.4 °F 41.1 °F 45.5 °F 97% 30.02 in 10.0 mi NNE 11.5 mph - N/A   Light Drizzle
5:55 PM 46.6 °F - 45.7 °F 97% 30.02 in 7.0 mi NNE 11.5 mph 16.1 mph N/A   Light Drizzle
6:15 PM 46.6 °F - 45.7 °F 97% 30.02 in 7.0 mi NNE 12.7 mph 17.3 mph N/A Rain Rain
6:35 PM 46.6 °F - 45.9 °F 97% 30.02 in 5.0 mi NNE 9.2 mph - 0.01 in Rain Rain
6:55 PM 46.6 °F - 46.0 °F 98% 30.03 in 5.0 mi NE 10.4 mph - 0.01 in Rain Light Rain
7:15 PM 46.6 °F - 46.0 °F 98% 30.03 in 7.0 mi NE 8.1 mph - N/A Rain Light Rain
7:35 PM 46.8 °F - 46.4 °F 99% 30.03 in 7.0 mi NE 9.2 mph - N/A   Overcast
7:55 PM 46.9 °F - 46.6 °F 99% 30.04 in 5.0 mi NE 5.8 mph - N/A   Overcast
8:15 PM 46.9 °F - 46.6 °F 99% 30.04 in 7.0 mi NNE 6.9 mph - N/A   Overcast
8:35 PM 46.9 °F - 46.4 °F 98% 30.03 in 7.0 mi NNE 6.9 mph - N/A   Overcast
8:55 PM 47.3 °F - 46.4 °F 97% 30.03 in 10.0 mi NNE 6.9 mph - N/A   Overcast
9:15 PM 47.3 °F - 46.2 °F 96% 30.03 in 10.0 mi NNE 6.9 mph - N/A   Overcast
9:35 PM 47.7 °F - 46.4 °F 95% 30.02 in 10.0 mi NNE 9.2 mph - N/A   Overcast
9:55 PM 47.8 °F - 46.4 °F 95% 30.03 in 10.0 mi NE 8.1 mph - N/A   Overcast
10:15 PM 48.4 °F - 46.6 °F 93% 30.03 in 10.0 mi NE 6.9 mph - N/A   Overcast
10:35 PM 48.4 °F - 46.4 °F 93% 30.03 in 10.0 mi NE 6.9 mph - N/A   Overcast
10:55 PM 48.4 °F - 46.4 °F 93% 30.03 in 10.0 mi NE 5.8 mph - N/A   Mostly Cloudy
11:15 PM 48.2 °F - 46.4 °F 93% 30.02 in 10.0 mi NE 6.9 mph - N/A   Scattered Clouds
11:35 PM 48.4 °F - 46.4 °F 93% 30.02 in 10.0 mi NNE 6.9 mph - N/A   Scattered Clouds
11:55 PM 48.2 °F - 45.7 °F 91% 30.02 in 10.0 mi North 3.5 mph - N/A   Mostly Cloudy